Weather History for KNMM - October, 2013

Change the Weather History Date:

Sunday, October 27, 2013

  Actual Average Record
Temperature  
Mean Temperature 56 °F -  
Max Temperature 69 °F 72 °F 84 °F (1996)
Min Temperature 44 °F 50 °F 36 °F (2005)
Degree Days  
Heating Degree Days 8    
Growing Degree Days 6 (Base 50)    
Moisture  
Dew Point 51 °F    
Average Humidity 79    
Maximum Humidity 96    
Minimum Humidity 47    
Precipitation  
Precipitation 0.00 in - - ()
Sea Level Pressure  
Sea Level Pressure 30.16 in    
Wind  
Wind Speed 1 mph (South)    
Max Wind Speed 8 mph    
Max Gust Speed -    
Visibility 10 miles    
Events Rain    
Averages and records for this station are not official NWS values.
T = Trace of Precipitation, MM = Missing Value Source: NWS Daily Summary

Daily Weather History Graph

Daily Weather History Graph

Search for Another Location

Airport or City:

Trip Planner

Search our weather history database for the weather conditions in past years. The results will help you decide how hot, cold, wet, or windy it might be!

Date:

Astronomy

Oct. 27, 2013 Rise Set
Actual Time 7:07 AM CDT 6:07 PM CDT
Civil Twilight 6:42 AM CDT 6:33 PM CDT
Nautical Twilight 6:13 AM CDT 7:02 PM CDT
Astronomical Twilight 5:44 AM CDT 7:30 PM CDT
Moon 12:26 AM CDT (10/27) 1:56 PM CDT (10/27)
Length of Visible Light 11h 50m
Length of Day
11h 00m
Last Quarter, 43% of the Moon is Illuminated
Oct 27
Last Quarter
Nov 3
New
Nov 9
First Quarter
Nov 17
Full
Nov 25
Last Quarter

Hourly Weather History & Observations

Time (CDT) Temp. Dew Point Humidity Pressure Visibility Wind Dir Wind Speed Gust Speed Precip Events Conditions
12:56 AM 46.9 °F 45.0 °F 93% 30.17 in 10.0 mi Calm Calm - N/A   Clear
1:56 AM 46.0 °F 44.1 °F 93% 30.17 in 10.0 mi Calm Calm - N/A   Clear
2:56 AM 46.9 °F 44.1 °F 90% 30.16 in 10.0 mi Calm Calm - N/A   Mostly Cloudy
3:56 AM 46.0 °F 43.0 °F 89% 30.16 in 10.0 mi Calm Calm - N/A   Scattered Clouds
4:56 AM 46.0 °F 44.1 °F 93% 30.16 in 10.0 mi Calm Calm - N/A   Overcast
5:56 AM 44.1 °F 43.0 °F 96% 30.16 in 10.0 mi Calm Calm - N/A   Clear
6:56 AM 46.0 °F 44.1 °F 93% 30.17 in 10.0 mi Calm Calm - N/A   Mostly Cloudy
7:56 AM 48.0 °F 45.0 °F 89% 30.18 in 10.0 mi Calm Calm - N/A   Clear
8:56 AM 55.0 °F 48.9 °F 80% 30.20 in 10.0 mi Calm Calm - N/A   Clear
9:56 AM 64.0 °F 51.1 °F 63% 30.20 in 10.0 mi SSW 5.8 mph - N/A   Clear
10:56 AM 69.1 °F 50.0 °F 51% 30.19 in 10.0 mi Variable 4.6 mph - N/A   Clear
11:56 AM 68.0 °F 46.9 °F 47% 30.19 in 10.0 mi SW 8.1 mph - N/A   Clear
12:56 PM 66.9 °F 50.0 °F 54% 30.19 in 10.0 mi SSW 4.6 mph - N/A   Scattered Clouds
1:56 PM 66.9 °F 52.0 °F 59% 30.15 in 10.0 mi South 3.5 mph - N/A   Scattered Clouds
2:56 PM 64.9 °F 53.1 °F 65% 30.14 in 10.0 mi Calm Calm - N/A   Mostly Cloudy
3:36 PM 64.4 °F 55.4 °F 73% 30.11 in 10.0 mi Calm Calm - 0.00 in Rain Light Rain
3:56 PM 62.1 °F 57.0 °F 84% 30.14 in 10.0 mi Calm Calm - 0.00 in Rain Light Rain
4:06 PM 62.6 °F 57.2 °F 82% 30.11 in 10.0 mi Calm Calm - 0.00 in   Overcast
4:56 PM 64.9 °F 55.9 °F 73% 30.13 in 10.0 mi ESE 3.5 mph - 0.00 in   Overcast
5:56 PM 63.0 °F 57.0 °F 81% 30.13 in 10.0 mi Calm Calm - N/A   Overcast
6:56 PM 59.0 °F 57.0 °F 93% 30.13 in 10.0 mi SE 4.6 mph - N/A   Mostly Cloudy
7:56 PM 60.1 °F 55.9 °F 86% 30.12 in 10.0 mi ESE 3.5 mph - N/A   Overcast
8:56 PM 60.1 °F 55.9 °F 86% 30.14 in 10.0 mi Calm Calm - N/A   Mostly Cloudy
9:56 PM 60.1 °F 55.0 °F 83% 30.16 in 10.0 mi Calm Calm - N/A   Overcast
10:56 PM 60.1 °F 54.0 °F 80% 30.16 in 10.0 mi Calm Calm - 0.00 in Rain Light Rain
11:56 PM 57.9 °F 55.0 °F 90% 30.15 in 10.0 mi Calm Calm - 0.00 in Rain Light Rain